Stations météo

réclame
Mon MeteoGroup
Tyndrum, Grande-Bretagne (99020): Température de l'air & dewpoint: 11.12.2018 05:00:00 - 17.12.2018 05:00:00 (GMT)Tyndrum, Grande-Bretagne (99020): Quantités de précipitations: 11.12.2018 05:00:00 - 17.12.2018 05:00:00 (GMT)
Date & Time tt [°C] td [°C] rr [mm]
17.12.2018 05:00:00 1,0 0,9 -
17.12.2018 04:00:00 1,1 0,9 0,4
17.12.2018 03:00:00 1,1 1,0 0,4
17.12.2018 02:00:00 1,2 1,0 0,6
17.12.2018 01:00:00 1,5 1,4 0,4
17.12.2018 00:00:00 1,7 1,5 0,6
16.12.2018 23:00:00 1,4 1,2 1,0
16.12.2018 22:00:00 1,6 1,3 1,2
16.12.2018 21:00:00 2,1 1,9 1,0
16.12.2018 20:00:00 1,9 1,6 1,2
16.12.2018 19:00:00 1,9 1,7 1,2
16.12.2018 18:00:00 1,3 0,9 0,4
16.12.2018 17:00:00 1,4 0,8 0,4
16.12.2018 16:00:00 2,6 1,9 0,8
16.12.2018 15:00:00 4,2 2,3 1,2
16.12.2018 14:00:00 4,6 2,6 1,8
16.12.2018 13:00:00 4,8 2,8 2,0
16.12.2018 12:00:00 4,3 2,9 2,4
16.12.2018 11:00:00 3,4 2,4 1,4
16.12.2018 10:00:00 3,9 2,3 2,4
16.12.2018 09:00:00 4,4 2,8 2,0
16.12.2018 08:00:00 3,0 2,2 3,0
16.12.2018 07:00:00 3,7 2,6 2,2
16.12.2018 06:00:00 4,2 2,6 2,2
16.12.2018 05:00:00 4,3 2,4 2,2
16.12.2018 04:00:00 3,0 2,2 1,8
16.12.2018 03:00:00 0,9 0,2 0,6
16.12.2018 02:00:00 0,5 -0,1 0,4
16.12.2018 01:00:00 1,1 0,0 0,6
16.12.2018 00:00:00 1,2 -0,3 0,4
15.12.2018 23:00:00 0,9 -0,2 0,4
15.12.2018 22:00:00 0,9 -0,3 0,2
15.12.2018 21:00:00 0,6 -0,2 0,2
15.12.2018 20:00:00 0,6 -0,3 0,2
15.12.2018 19:00:00 0,4 -0,5 0,2
15.12.2018 18:00:00 0,8 -0,9 0,4
15.12.2018 17:00:00 1,1 -1,2 0,2
15.12.2018 16:00:00 1,0 -1,5 0,0
15.12.2018 15:00:00 0,9 -1,7 0,0
15.12.2018 14:00:00 0,6 -1,8 0,0
15.12.2018 13:00:00 0,4 -2,0 0,0
15.12.2018 12:00:00 0,9 -2,9 0,0
15.12.2018 11:00:00 0,7 -2,5 0,0
15.12.2018 10:00:00 0,8 -2,3 0,0
15.12.2018 09:00:00 0,4 -2,4 0,0
15.12.2018 08:00:00 0,4 -2,1 0,0
15.12.2018 07:00:00 1,3 -2,3 0,0
15.12.2018 06:00:00 1,5 -2,7 0,0
15.12.2018 05:00:00 1,5 -3,1 0,0
15.12.2018 04:00:00 1,8 -3,2 0,0
15.12.2018 03:00:00 2,1 -3,6 0,0
15.12.2018 02:00:00 2,3 -3,9 0,0
15.12.2018 01:00:00 2,3 -4,0 0,0
15.12.2018 00:00:00 2,4 -3,4 0,0
14.12.2018 23:00:00 1,8 -3,3 0,0
14.12.2018 22:00:00 1,5 -3,2 0,0
14.12.2018 21:00:00 1,8 -3,7 0,0
14.12.2018 20:00:00 1,6 -3,7 0,0
14.12.2018 19:00:00 1,9 -4,0 0,0
14.12.2018 18:00:00 1,9 -3,6 0,0
14.12.2018 17:00:00 1,8 -3,6 0,0
14.12.2018 16:00:00 1,9 -3,1 0,0
14.12.2018 15:00:00 2,0 -3,2 0,0
14.12.2018 14:00:00 2,1 -3,4 0,0
14.12.2018 13:00:00 2,5 -3,2 0,0
14.12.2018 12:00:00 2,1 -3,0 0,0
14.12.2018 11:00:00 1,4 -2,6 0,0
14.12.2018 10:00:00 0,3 -3,3 0,0
14.12.2018 09:00:00 -0,1 -3,2 0,0
14.12.2018 08:00:00 0,9 -2,9 0,0
14.12.2018 07:00:00 1,5 -2,8 0,0
14.12.2018 06:00:00 1,3 -2,9 0,0
14.12.2018 05:00:00 1,3 -2,4 0,0
14.12.2018 04:00:00 1,2 -2,4 0,0
14.12.2018 03:00:00 1,9 -2,6 0,0
14.12.2018 02:00:00 1,8 -2,4 0,0
14.12.2018 01:00:00 2,2 -2,5 0,0
14.12.2018 00:00:00 2,4 -2,7 0,0
13.12.2018 23:00:00 2,4 -2,5 0,0
13.12.2018 22:00:00 2,4 -2,5 0,0
13.12.2018 21:00:00 2,8 -2,2 0,0
13.12.2018 20:00:00 3,0 -2,2 0,0
13.12.2018 19:00:00 3,1 -2,2 0,0
13.12.2018 18:00:00 3,1 -2,5 0,0
13.12.2018 17:00:00 2,9 -2,5 0,0
13.12.2018 16:00:00 2,5 -2,7 0,0
13.12.2018 15:00:00 3,3 -2,6 0,0
13.12.2018 14:00:00 3,7 -2,6 0,0
13.12.2018 13:00:00 4,2 -2,2 0,0
13.12.2018 12:00:00 4,2 -2,0 0,0
13.12.2018 11:00:00 3,3 -2,3 0,0
13.12.2018 10:00:00 3,2 -2,4 0,0
13.12.2018 09:00:00 3,4 -1,9 0,0
13.12.2018 08:00:00 3,4 -1,9 0,0
13.12.2018 07:00:00 3,3 -2,1 0,0
13.12.2018 06:00:00 3,2 -2,4 0,0
13.12.2018 05:00:00 3,0 -2,6 0,0
13.12.2018 04:00:00 3,0 -2,4 0,0
13.12.2018 03:00:00 2,9 -2,3 0,0
13.12.2018 02:00:00 2,8 -2,8 0,0
13.12.2018 01:00:00 3,2 -1,8 0,0
13.12.2018 00:00:00 3,7 -0,4 0,0
12.12.2018 23:00:00 4,4 0,7 0,0
12.12.2018 22:00:00 5,1 1,5 0,0
12.12.2018 21:00:00 5,6 2,2 0,0
12.12.2018 20:00:00 5,9 2,4 0,0
12.12.2018 19:00:00 6,2 2,4 0,0
12.12.2018 18:00:00 6,7 2,7 0,0
12.12.2018 17:00:00 6,6 3,2 0,0
12.12.2018 16:00:00 6,4 3,5 0,0
12.12.2018 15:00:00 6,2 3,6 0,0
12.12.2018 14:00:00 6,2 3,6 0,0
12.12.2018 13:00:00 6,4 3,8 0,0
12.12.2018 12:00:00 6,6 4,3 0,2
12.12.2018 11:00:00 6,5 4,8 0,0
12.12.2018 10:00:00 6,6 4,9 0,0
12.12.2018 09:00:00 6,8 5,0 0,0
12.12.2018 08:00:00 6,6 4,9 0,0
12.12.2018 07:00:00 6,9 5,0 0,0
12.12.2018 06:00:00 6,6 5,4 0,0
12.12.2018 05:00:00 6,8 5,3 0,0
12.12.2018 04:00:00 7,2 5,3 0,0
12.12.2018 03:00:00 7,0 5,2 0,0
12.12.2018 02:00:00 7,1 5,2 0,0
12.12.2018 01:00:00 7,3 5,2 0,0
12.12.2018 00:00:00 7,3 5,3 0,0
11.12.2018 23:00:00 7,5 5,3 0,0
11.12.2018 22:00:00 7,7 5,2 0,0
11.12.2018 21:00:00 7,7 5,0 0,0
11.12.2018 20:00:00 7,4 5,2 0,0
11.12.2018 19:00:00 5,5 4,9 0,0
11.12.2018 18:00:00 5,4 5,0 0,0
11.12.2018 17:00:00 4,8 4,3 0,0
11.12.2018 16:00:00 4,8 4,4 0,0
11.12.2018 15:00:00 5,0 4,4 0,0
11.12.2018 14:00:00 4,7 4,0 0,0
11.12.2018 13:00:00 4,3 3,7 0,0
11.12.2018 12:00:00 3,8 3,2 0,0
11.12.2018 11:00:00 3,7 3,1 0,0
11.12.2018 10:00:00 3,3 2,8 0,0
11.12.2018 09:00:00 3,4 2,6 0,0
11.12.2018 08:00:00 3,3 2,5 0,0
11.12.2018 07:00:00 3,2 2,4 0,0
11.12.2018 06:00:00 2,7 2,1 0,0
11.12.2018 05:00:00 2,6 1,9 0,0

tt = Température de l'air
td = dewpoint
rr = Quantités de précipitations

stations d'obs. à proximité